TimeEDT,TemperatureF,Dew PointF,Humidity,Sea Level PressureIn,VisibilityMPH,Wind Direction,Wind SpeedMPH,Gust SpeedMPH,PrecipitationIn,Events,Conditions,WindDirDegrees,DateUTC
12:15 AM,63.1,51.4,66,30.08,10.0,Calm,Calm,-,N/A,,Clear,0,2013-05-01 04:15:00
12:35 AM,62.8,51.3,66,30.08,10.0,SSE,3.5,-,N/A,,Clear,150,2013-05-01 04:35:00
1:15 AM,62.2,50.9,66,30.09,10.0,Calm,Calm,-,N/A,,Clear,0,2013-05-01 05:15:00
1:35 AM,61.9,50.7,67,30.08,10.0,Calm,Calm,-,N/A,,Clear,0,2013-05-01 05:35:00
1:55 AM,63.1,50.4,63,30.09,10.0,Calm,Calm,-,N/A,,Clear,0,2013-05-01 05:55:00
2:15 AM,60.6,49.6,67,30.09,10.0,NE,4.6,-,N/A,,Clear,50,2013-05-01 06:15:00
2:35 AM,57.7,49.1,73,30.09,10.0,East,5.8,-,N/A,,Clear,90,2013-05-01 06:35:00
2:55 AM,58.8,49.3,71,30.09,10.0,East,5.8,-,N/A,,Clear,90,2013-05-01 06:55:00
3:15 AM,59.2,50.0,72,30.09,10.0,East,4.6,-,N/A,,Clear,90,2013-05-01 07:15:00
3:35 AM,58.6,49.8,72,30.10,10.0,ENE,3.5,-,N/A,,Clear,70,2013-05-01 07:35:00
3:55 AM,58.5,49.5,72,30.10,10.0,ENE,3.5,-,N/A,,Clear,60,2013-05-01 07:55:00
4:15 AM,56.8,49.3,76,30.11,10.0,NE,3.5,-,N/A,,Clear,50,2013-05-01 08:15:00
4:35 AM,56.7,49.1,76,30.11,10.0,ENE,3.5,-,N/A,,Clear,60,2013-05-01 08:35:00
4:55 AM,55.4,48.7,78,30.11,10.0,Calm,Calm,-,N/A,,Clear,0,2013-05-01 08:55:00
5:15 AM,55.4,48.9,79,30.13,10.0,NE,4.6,-,N/A,,Clear,50,2013-05-01 09:15:00
5:35 AM,55.0,48.7,79,30.13,10.0,ENE,3.5,-,N/A,,Clear,60,2013-05-01 09:35:00
6:15 AM,55.0,48.9,80,30.15,10.0,ENE,5.8,-,N/A,,Clear,60,2013-05-01 10:15:00
6:35 AM,53.8,48.2,81,30.16,10.0,ENE,6.9,-,N/A,,Clear,60,2013-05-01 10:35:00
6:55 AM,53.2,48.2,83,30.16,10.0,ENE,6.9,-,N/A,,Clear,70,2013-05-01 10:55:00
7:15 AM,54.5,49.5,83,30.17,10.0,ENE,5.8,-,N/A,,Clear,70,2013-05-01 11:15:00
7:35 AM,56.7,50.9,81,30.18,10.0,East,4.6,-,N/A,,Clear,80,2013-05-01 11:35:00
7:55 AM,58.8,52.2,79,30.19,10.0,East,4.6,-,N/A,,Clear,80,2013-05-01 11:55:00
8:15 AM,61.5,53.1,74,30.20,10.0,East,5.8,-,N/A,,Clear,100,2013-05-01 12:15:00
8:35 AM,63.5,53.6,70,30.21,10.0,ESE,4.6,-,N/A,,Clear,110,2013-05-01 12:35:00
9:15 AM,66.7,54.0,63,30.22,10.0,ESE,9.2,-,N/A,,Clear,120,2013-05-01 13:15:00
9:35 AM,67.6,54.1,62,30.23,10.0,ESE,9.2,-,N/A,,Clear,120,2013-05-01 13:35:00
9:55 AM,68.4,54.7,62,30.23,10.0,SE,6.9,-,N/A,,Clear,140,2013-05-01 13:55:00
10:15 AM,69.8,54.9,59,30.23,10.0,SSE,9.2,-,N/A,,Clear,150,2013-05-01 14:15:00
10:35 AM,70.9,54.3,56,30.23,10.0,SE,8.1,-,N/A,,Clear,140,2013-05-01 14:35:00
10:55 AM,72.0,55.0,55,30.23,10.0,SSE,5.8,-,N/A,,Clear,150,2013-05-01 14:55:00
11:15 AM,72.5,55.4,55,30.23,10.0,SSE,9.2,-,N/A,,Clear,160,2013-05-01 15:15:00
11:35 AM,73.0,55.6,54,30.23,10.0,SE,9.2,-,N/A,,Clear,140,2013-05-01 15:35:00
11:55 AM,73.8,55.2,52,30.22,10.0,East,4.6,-,N/A,,Clear,100,2013-05-01 15:55:00
12:15 PM,74.5,54.5,50,30.22,10.0,SSE,3.5,-,N/A,,Clear,150,2013-05-01 16:15:00
12:35 PM,75.7,55.8,50,30.21,10.0,ENE,6.9,-,N/A,,Clear,70,2013-05-01 16:35:00
12:55 PM,76.1,56.1,50,30.21,10.0,East,6.9,-,N/A,,Clear,80,2013-05-01 16:55:00
1:15 PM,76.8,55.9,48,30.20,10.0,East,4.6,-,N/A,,Clear,100,2013-05-01 17:15:00
1:35 PM,77.5,55.2,46,30.19,10.0,ESE,9.2,-,N/A,,Clear,120,2013-05-01 17:35:00
1:55 PM,78.6,55.6,45,30.19,10.0,East,8.1,-,N/A,,Clear,90,2013-05-01 17:55:00
2:15 PM,79.3,55.6,44,30.19,10.0,ENE,8.1,-,N/A,,Clear,70,2013-05-01 18:15:00
2:35 PM,79.7,54.3,41,30.19,10.0,SE,5.8,-,N/A,,Clear,140,2013-05-01 18:35:00
2:55 PM,80.2,53.2,39,30.19,10.0,ESE,6.9,-,N/A,,Clear,110,2013-05-01 18:55:00
3:15 PM,80.8,51.8,36,30.19,10.0,ESE,10.4,-,N/A,,Clear,120,2013-05-01 19:15:00
3:35 PM,81.0,51.4,36,30.18,10.0,SE,6.9,-,N/A,,Clear,130,2013-05-01 19:35:00
4:15 PM,81.3,50.7,34,30.18,10.0,SE,9.2,-,N/A,,Clear,140,2013-05-01 20:15:00
4:35 PM,81.7,51.1,34,30.18,10.0,East,6.9,-,N/A,,Scattered Clouds,80,2013-05-01 20:35:00
5:15 PM,81.9,48.7,31,30.18,10.0,East,5.8,-,N/A,,Clear,90,2013-05-01 21:15:00
5:35 PM,82.0,48.6,31,30.18,10.0,NE,6.9,-,N/A,,Clear,40,2013-05-01 21:35:00
5:55 PM,81.7,50.2,33,30.18,10.0,ENE,11.5,-,N/A,,Clear,60,2013-05-01 21:55:00
6:15 PM,81.3,50.0,33,30.18,10.0,ENE,10.4,-,N/A,,Clear,70,2013-05-01 22:15:00
6:35 PM,81.0,48.7,32,30.18,10.0,ENE,12.7,-,N/A,,Clear,70,2013-05-01 22:35:00
6:55 PM,80.2,48.0,32,30.17,10.0,East,9.2,-,N/A,,Clear,80,2013-05-01 22:55:00
7:15 PM,79.5,48.9,34,30.17,10.0,East,8.1,-,N/A,,Clear,80,2013-05-01 23:15:00
7:35 PM,78.4,48.9,35,30.17,10.0,East,8.1,-,N/A,,Clear,80,2013-05-01 23:35:00
7:55 PM,77.2,49.5,38,30.17,10.0,East,8.1,-,N/A,,Clear,80,2013-05-01 23:55:00
8:15 PM,75.4,50.4,41,30.18,10.0,ENE,8.1,-,N/A,,Clear,70,2013-05-02 00:15:00
8:35 PM,73.6,50.7,45,30.18,10.0,East,6.9,-,N/A,,Clear,80,2013-05-02 00:35:00
8:55 PM,72.5,50.7,46,30.19,10.0,East,5.8,-,N/A,,Clear,80,2013-05-02 00:55:00
9:35 PM,70.9,50.7,49,30.20,10.0,East,5.8,-,N/A,,Clear,90,2013-05-02 01:35:00
9:55 PM,70.7,50.5,49,30.20,10.0,ENE,5.8,-,N/A,,Clear,70,2013-05-02 01:55:00
10:35 PM,68.9,50.9,53,30.20,10.0,ENE,8.1,-,N/A,,Clear,70,2013-05-02 02:35:00
10:55 PM,68.4,51.6,55,30.20,10.0,ENE,8.1,-,N/A,,Clear,70,2013-05-02 02:55:00
11:15 PM,68.2,51.6,55,30.20,10.0,ENE,8.1,-,N/A,,Clear,70,2013-05-02 03:15:00
11:35 PM,67.8,51.8,56,30.20,10.0,ENE,6.9,-,N/A,,Clear,70,2013-05-02 03:35:00
11:55 PM,67.5,51.8,57,30.19,10.0,East,8.1,-,N/A,,Clear,80,2013-05-02 03:55:00